SCOUT X-4 DEB, 976

Orbit data source: Space-Track

SCOUT X-4 DEB, 976 is space debris in LEO originally from a launch on Sat, 10 Oct 1964 UTC launched from the Air Force Western Test Range (AFWTR). Debris objects in space refer to the collection of defunct objects orbiting the Earth. Examples of debris include non-operational satellites, rocket bodies, and fragments generated from explosions, collisions, or faulty payload assembly.

Loading next visibility...
Identifier
976, 1964-064C
Orbit
LEO
Country
Flag of USUS
Related business
Manufacturer
APL
Mission
Spacecraft
Bus & Motor
Unknown
Mass
Unknown
Launch date (UTC)
1964-10-10 (61 years ago)
Launch vehicle
Unknown
Launch site
Air Force Western Test Range (AFWTR)
Object type
Payload
Rocket body
Debris
Shape & HBR
Unknown shape, 0.1 m
Radar Cross Section
Small (<0.1 m²)

Expand to show TLE details & history
Last TLE update: 8 hours ago

TLE from 8 hours ago
0 SCOUT X-4 DEB
1 00976U 64064C   25291.93505592  .00001077  00000-0  59662-3 0  9995
2 00976  79.3137 243.5113 0114506 316.5923  42.6264 14.07786436109021
Epoch: 2025-10-18T22:26Z
TLE epoch observation values (Epoch: 2025-10-18T22:26:28.831Z)
Latitude
-0.00001°
Longitude
-120.76777°
Altitude
809.174 km
Speed
7.48 km/s
True Right ascension
16h 14m 02s
True Declination
0° 00' 00"
Sunlit
Object was in daylight at epoch
Visualization orbit readout
Latitude
Unknown
Longitude
Unknown
Altitude
Unknown
Speed
Unknown
Apparent Right ascension
Unknown
Apparent Declination
Unknown
Sunlit
N/A
Visualization observer readout
Local Sidereal Time
01:35:36
Azimuth
Unknown
Elevation
Unknown
Doppler factor
Unknown
Orbital elements
Apogee altitude
947.165 km
Perigee altitude
781.306 km
Semi-major axis
7,242.372 km
Eccentricity
0.01145
Inclination
79.3137°
RAAN
243.5113°
Arg. of periapsis
316.5923°
True anomaly
43.52442°
Mean anomaly
42.6264°
Eccentric anomaly
43.07446°
Mean motion
3.52145 °/min
Orbital period
102.23 mins
BSTAR
0.00059662
Loading maneuver chart data...
Computing Atmospheric mass density...
Loading historical data...
Loading historical data...
Loading historical data...
Loading historical data...
Loading historical data...
Loading historical data...
Loading historical data...
Other satellites on launch #64 in the year 1964 (1964-10-10 UTC)

Documentation

Showing up to 5 results
|